Tracking 19176 objects as of 26-May-2018
HD Live streaming from Space Station
objects crossing your sky now

RADUGA 2

Track RADUGA 2 now!
RADUGA 2 is classified as:


NORAD ID: 9416
Int'l Code: 1976-092A
Perigee: 35,668.8 km
Apogee: 35,904.5 km
Inclination: 10.5 °
Period: 1,435.7 minutes
Semi major axis: 42157 km
RCS: 0.1428 m2 (medium)
Launch date: September 11, 1976
Source: Commonwealth of Independent States (former USSR) (CIS)
Launch site: TYURATAM MISSILE AND SPACE COMPLEX (TTMTR)
aabbcc
Your satellite tracking list
Your tracking list is empty




NASA's NSSDC Master Catalog

Two Line Element Set (TLE):
1  9416U 76092A   18145.51851663 -.00000084 +00000-0 +00000-0 0  9991
2  9416 010.4991 309.8953 0027950 313.7739 236.5405 01.00297165099812
Source of the keplerian elements: AFSPC